SCP
-0 -0 -0 0 0 0 -0 -0 -0 -0 0 -0 0 0 -0 0 0 0 -0 -0 0 -0 -0 -0 0 -0 -0 -0 -0 -0 -0 -0 -0 -0 -0 -0 -0 -0 -0 -0 -0 -0 -0 -0 0 -0 -0 -0 -0
-0 -0 -0 0 0 -0 -0 -0 -0 -0 -0 -0 -0 0 0 -0 -0 0 0 0 0 -0 -0 -0 0 -0 -0 -0 -0 -0 -0 -0 0 -0 -0 -0 -0 -0 -0 -0 -0 -0 -0 -0 0 0 0 0 0
0 -0 -0 0 -0 0 -0 -0 -0 -0 -0 -0 0 0 0 0 0 0 -0 0 0 -0 -0 -0 -0 -0 -0 -0 -0 -0 -0 -0 -0 0 -0 -0 0 0 0 -0 -0 -0 0 0 0 -0 -0 0 0
-0 -0 -0 -0 0 0 -0 0 0 0 0 0 0 0 0 -0 0 -0 0 0 -0 -0 -0 -0 -0 -0 0 -0 0 0 -0 -0 -0 -0 0 0 0 0 0 0 0 0 0 0 -0 0 0 0 0
-0 0 0 0 0 0 -0 0 0 0 0 0 0 0 0 0 0 -0 -0 -0 0 -0 -0 -0 -0 -0 -0 -0 0 0 0 0 0 -0 -0 0 0 0 0 0 0 0 0 0 -0 0 0 0 0
0 0 0 0 0 0 0 0 0 0 0 0 -0 0 0 -0 -0 -0 -0 -0 0 0 0 0 0 0 0 0 0 0 -0 0 0 -0 -0 0 0 0 0 0 -0 0 0 0 -0 0 0 0 0
0 -0 -0 0 0 0 0 0 0 -0 -0 0 -0 0 0 0 -0 -0 -0 -0 -0 0 0 0 0 0 0 0 0 0 0 0 0 0 -0 0 0 0 -0 0 0 -0 0 0 0 0 0 0 0
-0 -0 0 0 0 0 0 0 0 0 -0 -0 -0 0 0 0 -0 -0 -0 -0 -0 0 0 0 -0 -0 -0 -0 0 0 0 0 -0 0 0 -0 -0 -0 -0 -0 0 0 0 0 0 0 0 0 0
0 -0 -0 0 0 0 0 0 0 0 -0 0 0 -0 -0 0 0 -0 -0 -0 -0 -0 -0 -0 -0 0 0 -0 0 0 0 0 0 -0 -0 -0 -0 0 -0 0 0 0 0 0 0 0 0 0 0
0 0 -0 -0 -0 -0 0 0 0 0 -0 -0 -0 -0 -0 -0 -0 0 0 -0 -0 -0 -0 -0 -0 0 0 -0 -0 -0 -0 -0 -0 -0 -0 -0 0 0 0 0 0 0 0 0 0 0 0 0 0
0 -0 0 -0 0 -0 0 0 0 -0 0 -0 -0 0 0 0 -0 -0 0 0 -0 -0 -0 -0 -0 -0 -0 -0 -0 -0 -0 -0 -0 -0 -0 0 0 0 0 0 0 0 0 0 0 0 0 0 0
0 -0 -0 0 -0 0 0 0 0 0 0 -0 -0 -0 0 0 -0 -0 0 -0 0 -0 -0 -0 -0 -0 -0 -0 -0 -0 -0 0 -0 0 0 0 0 0 0 0 0 0 0 0 0 0 0 0 0
0 0 -0 0 0 -0 -0 -0 0 -0 -0 -0 -0 -0 0 0 0 -0 -0 -0 -0 -0 -0 -0 -0 -0 -0 -0 -0 -0 0 0 0 0 0 0 0 0 0 0 0 0 0 0 0 0 0 0 0
0 -0 0 0 0 -0 0 0 -0 0 0 0 -0 -0 0 -0 -0 -0 -0 -0 -0 -0 0 -0 0 -0 -0 -0 0 0 0 0 0 0 0 0 0 0 0 0 0 0 0 0 0 0 0 0 0
0 0 0 0 0 -0 -0 0 0 0 0 -0 -0 0 0 -0 -0 -0 -0 0 0 -0 -0 -0 0 -0 -0 -0 -0 -0 0 0 0 0 0 0 0 0 0 0 0 0 0 0 0 0 0 0 0
0 0 0 0 0 0 0 0 -0 -0 0 -0 -0 -0 0 0 -0 0 0 0 -0 0 0 -0 0 -0 0 -0 -0 -0 0 0 0 0 0 0 0 0 0 0 0 0 0 0 0 0 0 0 0
0 0 0 0 -0 -0 -0 0 -0 -0 0 0 -0 -0 0 0 0 0 0 0 0 0 -0 -0 0 -0 -0 -0 -0 -0 0 0 0 0 0 0 0 0 0 0 0 0 0 0 0 0 0 0 0
0 0 0 0 0 -0 0 -0 -0 -0 -0 -0 0 -0 0 0 0 0 0 0 0 0 0 0 0 -0 -0 -0 -0 -0 0 0 0 0 0 0 0 0 0 0 0 0 0 0 0 0 0 0 0
0 0 0 0 0 0 0 -0 -0 -0 0 0 -0 0 -0 0 0 0 0 0 0 0 0 -0 0 0 0 0 0 -0 -0 0 0 0 0 0 0 0 0 0 0 0 0 0 0 0 0 0 0
0 0 0 0 0 0 0 -0 -0 0 0 0 0 0 -0 -0 0 0 0 0 0 -0 0 0 0 0 0 0 0 0 0 0 0 0 0 0 0 0 0 0 0 0 0 0 0 0 0 0 0
0 0 0 0 0 0 0 0 0 0 0 0 -0 0 0 -0 0 0 0 0 0 0 0 0 0 -0 0 -0 0 0 0 0 0 0 0 0 0 0 0 0 0 0 0 0 0 0 0 0 0
0 0 0 0 0 0 0 0 0 0 0 -0 0 0 0 0 0 -0 0 0 0 -0 0 0 0 0 0 -0 -0 0 0 0 0 0 0 -0 0 0 0 0 0 0 0 0 0 0 0 0 0
0 0 0 0 0 0 0 0 0 0 0 0 0 0 0 0 -0 -0 -0 -0 -0 0 -0 0 0 0 0 0 -0 -0 -0 -0 -0 0 0 -0 -0 0 0 0 -0 -0 0 0 0 0 0 0 0
0 0 0 0 0 0 0 0 0 0 0 0 0 0 0 0 0 0 -0 -0 0 0 0 0 0 0 0 0 0 0 0 0 -0 -0 0 -0 -0 0 0 0 0 0 0 -0 0 0 0 0 0
0 0 0 0 0 0 0 0 0 -0 -0 -0 0 0 0 0 0 0 0 0 -0 0 0 0 0 0 0 0 0 0 0 -0 -0 0 0 -0 0 -0 0 0 0 0 -0 0 0 0 -0 0 0
0 0 0 0 0 0 0 0 0 0 -0 -0 0 0 0 0 0 0 0 0 0 0 0 0 0 0 0 0 0 0 -0 -0 -0 0 -0 -0 0 0 0 0 0 0 0 0 -0 0 -0 -0 0
0 0 0 0 0 0 0 0 0 0 0 0 0 -0 0 0 0 0 0 0 0 0 0 0 0 0 0 0 0 0 0 0 0 0 -0 -0 0 0 0 0 0 0 0 -0 0 -0 -0 -0 -0
0 0 0 0 0 0 0 0 0 0 0 0 0 0 0 0 0 0 0 0 0 0 0 0 0 0 0 0 0 0 0 0 0 0 0 0 0 -0 0 0 0 0 0 0 -0 -0 0 -0 -0
0 0 0 0 0 0 0 0 0 0 0 0 0 0 0 0 0 0 0 0 0 0 0 0 0 0 0 0 0 0 0 0 0 0 0 0 0 0 0 0 0 0 0 0 0 0 0 -0 -0
0 0 0 0 0 0 0 0 0 0 0 0 0 0 0 0 0 0 0 0 0 0 0 0 0 0 0 0 0 0 0 0 0 0 0 0 0 0 0 0 0 0 0 0 0 0 0 0 0
Wind_Speed_500mb
20 16 5 3 2 1 3 2 5 15 26 25 59 15 6 21 4 6 52 50 49 45 43 36 32 31 28 24 23 22 23 24 25 24 27 30 27 29 33 33 33 34 33 38 37 40 42 42 41
26 14 5 2 2 3 1 2 9 13 27 51 33 36 10 5 12 49 61 52 46 46 42 37 33 32 26 24 25 25 22 23 23 27 25 27 29 30 31 33 34 33 38 40 42 43 43 42 38
18 6 3 1 2 5 5 4 26 39 56 57 14 24 11 9 41 75 61 55 47 45 40 36 32 32 28 27 24 25 23 24 25 28 26 26 28 30 31 33 34 32 37 39 36 36 34 33 29
13 4 5 1 6 6 7 14 31 20 30 18 39 23 20 30 49 55 63 52 49 45 39 33 29 28 29 27 25 26 25 26 26 25 27 30 29 31 35 34 32 34 38 36 34 34 30 29 31
12 3 1 1 7 10 4 23 29 11 12 26 17 15 23 29 44 65 59 53 47 43 36 31 28 26 26 25 25 26 25 25 24 26 30 28 29 33 39 38 35 34 36 35 33 32 33 29 27
2 4 3 8 12 7 8 23 23 27 35 33 37 34 14 39 62 60 54 48 41 39 35 31 27 25 25 25 25 26 26 24 25 26 30 30 30 35 39 35 33 30 34 36 28 26 29 29 26
2 4 2 2 6 16 3 30 18 35 34 21 39 14 35 57 58 57 51 44 39 34 31 28 26 25 25 25 24 24 24 25 26 26 27 31 31 36 39 33 29 32 35 34 30 29 29 28 24
5 2 3 4 8 10 7 13 31 29 25 49 43 10 33 64 65 59 51 44 39 31 27 27 25 26 27 25 24 23 24 24 26 27 30 31 35 35 38 33 28 30 30 32 32 31 24 21 21
11 3 9 21 15 18 8 14 22 22 61 25 8 49 69 68 67 54 49 43 36 33 29 26 28 28 27 28 27 27 25 26 27 27 32 33 33 37 37 33 30 30 32 32 30 25 22 20 18
7 1 12 3 4 25 16 24 26 26 38 44 63 50 67 65 60 51 49 45 39 36 35 32 30 29 28 30 32 33 32 30 31 34 36 31 35 36 40 37 34 36 34 35 34 26 18 15 10
11 3 7 10 35 31 30 14 20 42 19 64 66 72 70 65 59 52 46 45 43 39 35 34 30 28 31 36 32 37 32 28 29 35 35 32 33 39 34 27 25 37 36 33 30 21 16 9 4
6 2 1 15 41 30 21 32 19 31 11 66 69 78 74 70 67 59 53 48 48 49 46 39 34 30 38 34 36 32 30 27 26 31 32 28 31 33 29 29 32 43 30 30 20 19 18 9 5
1 6 3 5 24 36 29 22 15 47 29 68 73 78 76 70 65 58 51 46 52 54 47 41 37 34 34 32 33 33 31 28 26 26 25 29 30 25 24 25 21 16 27 29 30 24 20 12 19
21 24 2 3 20 32 15 17 22 32 43 68 71 70 75 71 66 59 56 51 50 51 48 43 39 35 36 29 28 32 28 27 23 21 22 20 14 15 12 14 15 27 29 23 21 21 17 21 23
18 10 3 9 23 9 37 8 12 42 56 69 66 66 68 69 65 63 59 51 50 46 43 38 34 33 31 27 30 28 22 21 21 14 17 15 17 17 12 14 19 29 26 23 20 20 13 13 11
14 6 7 11 16 15 2 10 30 44 53 62 62 61 58 67 70 61 58 52 52 46 42 37 34 31 31 32 33 28 26 20 17 14 13 13 15 15 17 17 24 21 21 22 19 16 12 10 7
7 7 8 15 19 14 6 11 43 43 46 53 59 60 57 58 61 65 59 50 48 44 43 41 37 33 37 30 31 27 21 18 16 10 8 12 13 13 16 14 20 19 24 23 17 14 13 9 5
7 4 3 13 12 25 5 8 35 32 40 43 44 60 51 60 66 67 61 52 48 47 47 42 40 36 32 27 29 29 21 18 15 9 3 6 9 9 8 14 17 20 21 20 13 12 5 3 2
8 4 13 9 8 7 4 19 32 28 38 54 33 52 65 73 71 60 65 58 52 48 47 45 41 39 33 29 34 32 30 20 17 16 9 8 12 9 9 8 9 14 12 13 9 6 5 0 2
11 6 7 14 17 5 10 18 25 22 34 49 29 53 60 58 65 69 70 65 55 51 43 43 41 44 36 29 30 28 24 25 22 16 11 10 10 15 10 9 10 6 11 7 7 3 2 4 2
6 8 12 10 14 7 13 3 20 16 22 25 33 49 61 65 72 76 72 68 64 55 52 49 36 31 39 34 33 27 23 24 21 20 15 12 11 10 19 13 18 15 13 13 10 4 3 2 3
3 12 16 29 14 7 8 6 7 7 8 50 43 47 63 64 80 80 77 73 69 59 53 48 39 30 34 40 37 30 25 23 22 16 20 16 14 11 10 18 23 16 13 13 12 8 4 5 7
15 14 22 27 9 11 6 6 5 9 11 16 47 35 63 72 85 84 85 74 69 60 55 49 45 36 31 43 36 32 27 23 23 20 22 21 17 15 15 18 22 20 15 15 16 13 9 4 5
5 12 22 11 7 1 15 8 6 11 23 20 29 35 38 55 67 87 82 77 74 63 58 51 48 43 37 45 42 35 26 22 30 24 26 22 18 16 13 15 13 20 15 18 18 18 15 7 3
8 14 5 6 1 10 16 8 6 12 12 35 34 47 48 64 64 63 74 86 80 73 65 56 49 47 44 41 49 39 28 19 23 26 26 23 20 20 17 15 16 14 14 21 23 22 21 12 9
14 19 11 10 8 2 9 8 3 12 30 39 43 43 51 58 72 62 81 85 83 76 68 62 53 49 45 46 48 44 32 29 21 24 25 20 18 13 14 12 14 15 17 21 24 26 24 22 18
8 9 13 12 5 9 4 6 4 6 14 26 30 29 31 39 65 54 73 76 75 80 74 66 59 51 45 47 49 47 36 30 21 18 23 24 19 17 17 14 11 10 18 23 21 21 28 29 27
15 14 7 6 9 7 3 1 7 4 17 19 20 25 14 19 36 37 54 73 62 79 79 73 53 57 46 46 48 51 42 32 25 22 22 24 24 25 19 20 23 16 17 23 25 23 23 26 28
5 4 12 10 7 10 8 6 6 10 13 18 23 23 12 6 9 25 36 57 69 70 77 73 62 49 54 44 47 49 50 41 31 32 32 32 25 24 19 21 24 23 18 19 22 20 22 23 21
4 14 11 10 5 6 8 5 9 21 22 28 22 27 24 14 11 22 33 40 57 72 62 63 59 47 46 44 43 41 48 47 42 36 35 36 31 29 23 22 22 23 23 20 20 22 20 20 22
Wind_Direction_500mb
135 137 148 357 352 318 311 140 96 108 155 171 165 177 152 127 143 175 143 152 159 153 147 146 145 145 140 133 129 126 131 137 134 134 134 127 127 124 123 118 118 115 119 114 110 113 114 111 110
129 129 78 16 321 107 306 34 122 159 155 152 156 118 60 74 118 137 145 154 158 154 150 149 143 136 133 128 127 122 121 129 133 132 129 135 128 124 124 119 121 121 120 122 117 116 116 111 107
143 108 106 6 204 209 134 87 102 107 128 141 120 95 76 98 137 139 147 152 157 152 146 142 140 139 138 129 127 124 126 126 131 135 131 132 129 127 122 117 120 118 127 125 122 119 111 106 109
156 164 87 336 246 290 128 139 124 101 98 125 115 82 73 140 133 146 145 152 151 145 143 138 139 140 136 131 127 126 125 129 134 139 139 133 132 130 125 118 123 126 130 126 118 115 110 111 100
165 127 70 293 291 282 97 121 126 113 99 133 128 99 101 148 143 144 146 150 151 144 145 144 142 137 137 133 131 130 131 129 132 132 133 130 136 133 128 116 115 126 131 127 118 108 109 114 109
133 116 136 177 236 123 122 145 111 95 103 102 104 108 98 148 146 146 148 150 151 148 150 148 142 141 140 135 134 132 132 128 128 133 133 131 137 133 131 119 112 120 131 131 125 116 109 107 97
206 109 256 158 105 103 124 116 115 124 110 94 129 100 133 149 146 145 148 150 151 155 151 145 144 142 141 139 134 133 133 134 128 132 132 134 132 133 132 124 122 126 139 140 132 125 112 102 87
188 109 251 354 250 160 125 97 124 122 103 123 108 147 150 155 151 149 148 153 154 153 149 147 141 145 145 141 137 136 134 133 131 133 134 133 129 131 136 132 122 136 144 146 141 132 121 107 100
185 291 167 178 166 152 210 130 128 112 131 127 155 147 149 154 154 152 155 155 154 151 148 144 143 148 147 142 135 127 122 125 127 130 133 128 131 133 131 128 124 130 140 150 146 135 130 120 107
136 236 208 152 204 153 172 131 128 131 132 108 118 139 154 157 155 156 159 155 155 151 150 148 144 148 145 138 134 129 120 111 120 132 130 133 130 138 138 127 126 130 133 142 147 141 128 117 88
148 194 347 272 218 159 160 137 127 147 131 142 143 149 161 161 163 150 150 143 142 144 144 137 141 144 138 131 131 131 126 117 114 127 131 136 134 129 127 128 122 131 130 135 138 137 134 156 131
140 287 72 317 184 180 164 146 130 160 129 150 158 161 165 165 169 159 150 147 145 136 131 130 132 137 140 134 131 131 126 120 125 129 135 134 133 135 130 130 122 130 119 131 135 145 156 135 184
150 204 136 249 196 172 156 173 150 159 169 156 155 163 170 172 175 168 153 148 147 141 133 129 128 133 142 136 138 136 125 119 117 120 128 127 123 123 131 140 132 153 137 130 138 142 136 97 84
168 168 155 318 179 166 148 147 123 171 168 159 160 165 175 180 180 172 167 157 155 154 140 132 137 135 139 142 144 142 134 129 120 121 121 126 126 110 133 125 139 146 151 147 131 131 113 94 87
161 125 130 213 163 143 128 123 130 145 157 163 164 168 176 182 182 178 173 165 157 158 151 150 137 154 155 137 146 145 143 137 117 122 125 116 119 114 116 142 126 144 154 150 139 136 113 116 97
139 57 166 156 157 168 130 161 146 165 166 168 171 168 176 186 189 183 176 172 162 161 158 157 158 157 158 154 145 147 145 147 146 135 143 138 135 125 116 129 137 140 156 143 151 150 134 135 56
47 178 197 140 210 180 110 122 170 181 162 164 173 170 180 184 190 188 181 179 171 171 167 162 165 163 156 159 164 153 153 157 159 166 169 157 153 139 133 144 142 137 144 151 136 136 135 144 119
101 114 195 147 198 210 218 170 176 187 168 175 168 174 178 171 193 191 186 184 180 177 174 173 172 176 172 166 172 181 169 174 183 183 225 202 173 153 140 139 147 141 141 151 138 126 119 138 6
105 53 101 107 128 307 57 145 175 182 174 193 183 168 175 191 186 191 186 186 181 177 179 184 189 186 182 178 170 176 181 188 177 181 206 249 221 221 196 169 151 144 151 154 154 131 105 356 277
126 121 73 113 157 216 129 156 179 168 195 195 175 168 180 175 178 187 187 184 184 180 179 181 185 199 189 186 182 183 193 192 203 204 207 196 221 215 207 195 188 162 145 154 160 148 112 114 27
138 175 170 144 138 74 85 89 183 217 191 206 215 180 180 175 179 184 187 187 184 186 181 180 186 184 193 189 194 192 200 203 215 216 215 198 201 211 195 207 208 213 202 218 214 199 337 315 317
186 191 185 148 135 164 230 201 240 197 217 190 218 185 178 176 186 188 189 189 190 192 188 189 194 195 200 202 209 216 221 209 214 213 203 200 189 193 205 203 201 213 201 212 206 210 234 313 332
220 174 177 160 111 112 246 115 175 146 211 189 197 186 182 181 189 191 191 191 193 196 194 197 200 198 201 204 204 213 214 216 222 219 208 205 199 186 200 203 209 207 228 228 230 227 233 227 355
156 93 45 57 91 164 198 154 235 190 196 185 184 182 181 177 185 194 192 195 197 198 198 202 205 206 205 204 210 210 224 226 205 210 207 207 194 192 196 192 204 198 213 216 220 221 227 211 258
120 88 30 35 325 223 170 149 223 285 228 178 189 171 188 181 187 197 195 197 199 200 203 205 209 211 212 212 211 214 215 203 208 222 220 213 209 205 207 200 202 213 223 211 216 224 234 234 244
179 155 153 175 194 271 104 229 314 327 217 208 171 188 177 184 191 217 211 205 204 207 208 207 209 211 213 216 216 218 217 220 222 228 220 228 227 215 205 192 208 216 213 220 226 231 236 236 242
183 146 192 115 350 90 202 322 156 53 75 137 150 135 164 177 187 188 202 205 215 215 214 214 210 214 216 218 221 222 225 223 226 236 217 206 203 210 211 201 217 235 228 220 227 237 236 241 241
154 162 78 18 132 124 272 246 248 165 129 102 98 108 113 191 197 208 201 204 218 226 219 217 213 218 219 221 223 226 230 229 229 234 214 217 220 221 225 237 241 255 257 238 235 230 231 237 243
61 97 57 112 118 146 140 254 229 168 118 115 102 101 123 161 193 219 204 214 208 219 219 218 213 221 224 222 226 227 227 230 233 232 234 227 224 221 237 258 238 237 255 244 243 236 235 240 238
288 163 134 121 225 59 117 226 55 115 128 122 113 109 111 129 196 190 187 193 195 205 210 218 213 217 221 228 228 228 227 232 237 239 235 235 240 230 241 251 237 241 246 242 249 244 238 239 235
Wind_Speed_850mb
20 16 5 3 2 1 3 2 5 15 26 25 59 15 6 21 4 6 52 50 49 45 43 36 32 31 28 24 23 22 23 24 25 24 27 30 27 29 33 33 33 34 33 38 37 40 42 42 41
26 14 5 2 2 3 1 2 9 13 27 51 33 36 10 5 12 49 61 52 46 46 42 37 33 32 26 24 25 25 22 23 23 27 25 27 29 30 31 33 34 33 38 40 42 43 43 42 38
18 6 3 1 2 5 5 4 26 39 56 57 14 24 11 9 41 75 61 55 47 45 40 36 32 32 28 27 24 25 23 24 25 28 26 26 28 30 31 33 34 32 37 39 36 36 34 33 29
13 4 5 1 6 6 7 14 31 20 30 18 39 23 20 30 49 55 63 52 49 45 39 33 29 28 29 27 25 26 25 26 26 25 27 30 29 31 35 34 32 34 38 36 34 34 30 29 31
12 3 1 1 7 10 4 23 29 11 12 26 17 15 23 29 44 65 59 53 47 43 36 31 28 26 26 25 25 26 25 25 24 26 30 28 29 33 39 38 35 34 36 35 33 32 33 29 27
2 4 3 8 12 7 8 23 23 27 35 33 37 34 14 39 62 60 54 48 41 39 35 31 27 25 25 25 25 26 26 24 25 26 30 30 30 35 39 35 33 30 34 36 28 26 29 29 26
2 4 2 2 6 16 3 30 18 35 34 21 39 14 35 57 58 57 51 44 39 34 31 28 26 25 25 25 24 24 24 25 26 26 27 31 31 36 39 33 29 32 35 34 30 29 29 28 24
5 2 3 4 8 10 7 13 31 29 25 49 43 10 33 64 65 59 51 44 39 31 27 27 25 26 27 25 24 23 24 24 26 27 30 31 35 35 38 33 28 30 30 32 32 31 24 21 21
11 3 9 21 15 18 8 14 22 22 61 25 8 49 69 68 67 54 49 43 36 33 29 26 28 28 27 28 27 27 25 26 27 27 32 33 33 37 37 33 30 30 32 32 30 25 22 20 18
7 1 12 3 4 25 16 24 26 26 38 44 63 50 67 65 60 51 49 45 39 36 35 32 30 29 28 30 32 33 32 30 31 34 36 31 35 36 40 37 34 36 34 35 34 26 18 15 10
11 3 7 10 35 31 30 14 20 42 19 64 66 72 70 65 59 52 46 45 43 39 35 34 30 28 31 36 32 37 32 28 29 35 35 32 33 39 34 27 25 37 36 33 30 21 16 9 4
6 2 1 15 41 30 21 32 19 31 11 66 69 78 74 70 67 59 53 48 48 49 46 39 34 30 38 34 36 32 30 27 26 31 32 28 31 33 29 29 32 43 30 30 20 19 18 9 5
1 6 3 5 24 36 29 22 15 47 29 68 73 78 76 70 65 58 51 46 52 54 47 41 37 34 34 32 33 33 31 28 26 26 25 29 30 25 24 25 21 16 27 29 30 24 20 12 19
21 24 2 3 20 32 15 17 22 32 43 68 71 70 75 71 66 59 56 51 50 51 48 43 39 35 36 29 28 32 28 27 23 21 22 20 14 15 12 14 15 27 29 23 21 21 17 21 23
18 10 3 9 23 9 37 8 12 42 56 69 66 66 68 69 65 63 59 51 50 46 43 38 34 33 31 27 30 28 22 21 21 14 17 15 17 17 12 14 19 29 26 23 20 20 13 13 11
14 6 7 11 16 15 2 10 30 44 53 62 62 61 58 67 70 61 58 52 52 46 42 37 34 31 31 32 33 28 26 20 17 14 13 13 15 15 17 17 24 21 21 22 19 16 12 10 7
7 7 8 15 19 14 6 11 43 43 46 53 59 60 57 58 61 65 59 50 48 44 43 41 37 33 37 30 31 27 21 18 16 10 8 12 13 13 16 14 20 19 24 23 17 14 13 9 5
7 4 3 13 12 25 5 8 35 32 40 43 44 60 51 60 66 67 61 52 48 47 47 42 40 36 32 27 29 29 21 18 15 9 3 6 9 9 8 14 17 20 21 20 13 12 5 3 2
8 4 13 9 8 7 4 19 32 28 38 54 33 52 65 73 71 60 65 58 52 48 47 45 41 39 33 29 34 32 30 20 17 16 9 8 12 9 9 8 9 14 12 13 9 6 5 0 2
11 6 7 14 17 5 10 18 25 22 34 49 29 53 60 58 65 69 70 65 55 51 43 43 41 44 36 29 30 28 24 25 22 16 11 10 10 15 10 9 10 6 11 7 7 3 2 4 2
6 8 12 10 14 7 13 3 20 16 22 25 33 49 61 65 72 76 72 68 64 55 52 49 36 31 39 34 33 27 23 24 21 20 15 12 11 10 19 13 18 15 13 13 10 4 3 2 3
3 12 16 29 14 7 8 6 7 7 8 50 43 47 63 64 80 80 77 73 69 59 53 48 39 30 34 40 37 30 25 23 22 16 20 16 14 11 10 18 23 16 13 13 12 8 4 5 7
15 14 22 27 9 11 6 6 5 9 11 16 47 35 63 72 85 84 85 74 69 60 55 49 45 36 31 43 36 32 27 23 23 20 22 21 17 15 15 18 22 20 15 15 16 13 9 4 5
5 12 22 11 7 1 15 8 6 11 23 20 29 35 38 55 67 87 82 77 74 63 58 51 48 43 37 45 42 35 26 22 30 24 26 22 18 16 13 15 13 20 15 18 18 18 15 7 3
8 14 5 6 1 10 16 8 6 12 12 35 34 47 48 64 64 63 74 86 80 73 65 56 49 47 44 41 49 39 28 19 23 26 26 23 20 20 17 15 16 14 14 21 23 22 21 12 9
14 19 11 10 8 2 9 8 3 12 30 39 43 43 51 58 72 62 81 85 83 76 68 62 53 49 45 46 48 44 32 29 21 24 25 20 18 13 14 12 14 15 17 21 24 26 24 22 18
8 9 13 12 5 9 4 6 4 6 14 26 30 29 31 39 65 54 73 76 75 80 74 66 59 51 45 47 49 47 36 30 21 18 23 24 19 17 17 14 11 10 18 23 21 21 28 29 27
15 14 7 6 9 7 3 1 7 4 17 19 20 25 14 19 36 37 54 73 62 79 79 73 53 57 46 46 48 51 42 32 25 22 22 24 24 25 19 20 23 16 17 23 25 23 23 26 28
5 4 12 10 7 10 8 6 6 10 13 18 23 23 12 6 9 25 36 57 69 70 77 73 62 49 54 44 47 49 50 41 31 32 32 32 25 24 19 21 24 23 18 19 22 20 22 23 21
4 14 11 10 5 6 8 5 9 21 22 28 22 27 24 14 11 22 33 40 57 72 62 63 59 47 46 44 43 41 48 47 42 36 35 36 31 29 23 22 22 23 23 20 20 22 20 20 22
Wind_Direction_850mb
135 137 148 357 352 318 311 140 96 108 155 171 165 177 152 127 143 175 143 152 159 153 147 146 145 145 140 133 129 126 131 137 134 134 134 127 127 124 123 118 118 115 119 114 110 113 114 111 110
129 129 78 16 321 107 306 34 122 159 155 152 156 118 60 74 118 137 145 154 158 154 150 149 143 136 133 128 127 122 121 129 133 132 129 135 128 124 124 119 121 121 120 122 117 116 116 111 107
143 108 106 6 204 209 134 87 102 107 128 141 120 95 76 98 137 139 147 152 157 152 146 142 140 139 138 129 127 124 126 126 131 135 131 132 129 127 122 117 120 118 127 125 122 119 111 106 109
156 164 87 336 246 290 128 139 124 101 98 125 115 82 73 140 133 146 145 152 151 145 143 138 139 140 136 131 127 126 125 129 134 139 139 133 132 130 125 118 123 126 130 126 118 115 110 111 100
165 127 70 293 291 282 97 121 126 113 99 133 128 99 101 148 143 144 146 150 151 144 145 144 142 137 137 133 131 130 131 129 132 132 133 130 136 133 128 116 115 126 131 127 118 108 109 114 109
133 116 136 177 236 123 122 145 111 95 103 102 104 108 98 148 146 146 148 150 151 148 150 148 142 141 140 135 134 132 132 128 128 133 133 131 137 133 131 119 112 120 131 131 125 116 109 107 97
206 109 256 158 105 103 124 116 115 124 110 94 129 100 133 149 146 145 148 150 151 155 151 145 144 142 141 139 134 133 133 134 128 132 132 134 132 133 132 124 122 126 139 140 132 125 112 102 87
188 109 251 354 250 160 125 97 124 122 103 123 108 147 150 155 151 149 148 153 154 153 149 147 141 145 145 141 137 136 134 133 131 133 134 133 129 131 136 132 122 136 144 146 141 132 121 107 100
185 291 167 178 166 152 210 130 128 112 131 127 155 147 149 154 154 152 155 155 154 151 148 144 143 148 147 142 135 127 122 125 127 130 133 128 131 133 131 128 124 130 140 150 146 135 130 120 107
136 236 208 152 204 153 172 131 128 131 132 108 118 139 154 157 155 156 159 155 155 151 150 148 144 148 145 138 134 129 120 111 120 132 130 133 130 138 138 127 126 130 133 142 147 141 128 117 88
148 194 347 272 218 159 160 137 127 147 131 142 143 149 161 161 163 150 150 143 142 144 144 137 141 144 138 131 131 131 126 117 114 127 131 136 134 129 127 128 122 131 130 135 138 137 134 156 131
140 287 72 317 184 180 164 146 130 160 129 150 158 161 165 165 169 159 150 147 145 136 131 130 132 137 140 134 131 131 126 120 125 129 135 134 133 135 130 130 122 130 119 131 135 145 156 135 184
150 204 136 249 196 172 156 173 150 159 169 156 155 163 170 172 175 168 153 148 147 141 133 129 128 133 142 136 138 136 125 119 117 120 128 127 123 123 131 140 132 153 137 130 138 142 136 97 84
168 168 155 318 179 166 148 147 123 171 168 159 160 165 175 180 180 172 167 157 155 154 140 132 137 135 139 142 144 142 134 129 120 121 121 126 126 110 133 125 139 146 151 147 131 131 113 94 87
161 125 130 213 163 143 128 123 130 145 157 163 164 168 176 182 182 178 173 165 157 158 151 150 137 154 155 137 146 145 143 137 117 122 125 116 119 114 116 142 126 144 154 150 139 136 113 116 97
139 57 166 156 157 168 130 161 146 165 166 168 171 168 176 186 189 183 176 172 162 161 158 157 158 157 158 154 145 147 145 147 146 135 143 138 135 125 116 129 137 140 156 143 151 150 134 135 56
47 178 197 140 210 180 110 122 170 181 162 164 173 170 180 184 190 188 181 179 171 171 167 162 165 163 156 159 164 153 153 157 159 166 169 157 153 139 133 144 142 137 144 151 136 136 135 144 119
101 114 195 147 198 210 218 170 176 187 168 175 168 174 178 171 193 191 186 184 180 177 174 173 172 176 172 166 172 181 169 174 183 183 225 202 173 153 140 139 147 141 141 151 138 126 119 138 6
105 53 101 107 128 307 57 145 175 182 174 193 183 168 175 191 186 191 186 186 181 177 179 184 189 186 182 178 170 176 181 188 177 181 206 249 221 221 196 169 151 144 151 154 154 131 105 356 277
126 121 73 113 157 216 129 156 179 168 195 195 175 168 180 175 178 187 187 184 184 180 179 181 185 199 189 186 182 183 193 192 203 204 207 196 221 215 207 195 188 162 145 154 160 148 112 114 27
138 175 170 144 138 74 85 89 183 217 191 206 215 180 180 175 179 184 187 187 184 186 181 180 186 184 193 189 194 192 200 203 215 216 215 198 201 211 195 207 208 213 202 218 214 199 337 315 317
186 191 185 148 135 164 230 201 240 197 217 190 218 185 178 176 186 188 189 189 190 192 188 189 194 195 200 202 209 216 221 209 214 213 203 200 189 193 205 203 201 213 201 212 206 210 234 313 332
220 174 177 160 111 112 246 115 175 146 211 189 197 186 182 181 189 191 191 191 193 196 194 197 200 198 201 204 204 213 214 216 222 219 208 205 199 186 200 203 209 207 228 228 230 227 233 227 355
156 93 45 57 91 164 198 154 235 190 196 185 184 182 181 177 185 194 192 195 197 198 198 202 205 206 205 204 210 210 224 226 205 210 207 207 194 192 196 192 204 198 213 216 220 221 227 211 258
120 88 30 35 325 223 170 149 223 285 228 178 189 171 188 181 187 197 195 197 199 200 203 205 209 211 212 212 211 214 215 203 208 222 220 213 209 205 207 200 202 213 223 211 216 224 234 234 244
179 155 153 175 194 271 104 229 314 327 217 208 171 188 177 184 191 217 211 205 204 207 208 207 209 211 213 216 216 218 217 220 222 228 220 228 227 215 205 192 208 216 213 220 226 231 236 236 242
183 146 192 115 350 90 202 322 156 53 75 137 150 135 164 177 187 188 202 205 215 215 214 214 210 214 216 218 221 222 225 223 226 236 217 206 203 210 211 201 217 235 228 220 227 237 236 241 241
154 162 78 18 132 124 272 246 248 165 129 102 98 108 113 191 197 208 201 204 218 226 219 217 213 218 219 221 223 226 230 229 229 234 214 217 220 221 225 237 241 255 257 238 235 230 231 237 243
61 97 57 112 118 146 140 254 229 168 118 115 102 101 123 161 193 219 204 214 208 219 219 218 213 221 224 222 226 227 227 230 233 232 234 227 224 221 237 258 238 237 255 244 243 236 235 240 238
288 163 134 121 225 59 117 226 55 115 128 122 113 109 111 129 196 190 187 193 195 205 210 218 213 217 221 228 228 228 227 232 237 239 235 235 240 230 241 251 237 241 246 242 249 244 238 239 235